Time,TemperatureF,DewpointF,PressureIn,WindDirection,WindDirectionDegrees,WindSpeedMPH,WindSpeedGustMPH,Humidity,HourlyPrecipIn,Conditions,Clouds,dailyrainin,SolarRadiationWatts/m^2,SoftwareType,DateUTC
2013-04-24 00:12:00,64.0,48.0,-100.00,SE,142,11.0,22.0,56,0.00,,,0.00,0.000000,,2013-04-24 04:12:00,
2013-04-24 00:23:00,64.0,48.0,-100.00,SE,142,11.0,22.0,56,0.00,,,0.00,0.000000,,2013-04-24 04:23:00,
2013-04-24 00:33:00,64.0,48.0,-100.00,SE,142,11.0,22.0,56,0.00,,,0.00,0.000000,,2013-04-24 04:33:00,
2013-04-24 00:43:00,64.0,48.0,-100.00,SE,142,11.0,22.0,56,0.00,,,0.00,0.000000,,2013-04-24 04:43:00,
2013-04-24 01:13:00,65.0,49.0,-100.00,SSE,147,13.0,24.0,56,0.00,,,0.00,0.000000,,2013-04-24 05:13:00,
2013-04-24 01:22:00,65.0,49.0,-100.00,SSE,147,13.0,24.0,56,0.00,,,0.00,0.000000,,2013-04-24 05:22:00,
2013-04-24 01:32:00,65.0,49.0,-100.00,SSE,147,13.0,24.0,56,0.00,,,0.00,0.000000,,2013-04-24 05:32:00,
2013-04-24 01:42:00,65.0,49.0,-100.00,SSE,147,13.0,24.0,56,0.00,,,0.00,0.000000,,2013-04-24 05:42:00,
2013-04-24 02:12:00,65.0,50.0,-100.00,SSE,152,11.0,24.0,58,0.00,,,0.00,0.000000,,2013-04-24 06:12:00,
2013-04-24 02:22:00,65.0,50.0,-100.00,SSE,152,11.0,24.0,58,0.00,,,0.00,0.000000,,2013-04-24 06:22:00,
2013-04-24 02:33:00,65.0,50.0,-100.00,SSE,152,11.0,24.0,58,0.00,,,0.00,0.000000,,2013-04-24 06:33:00,
2013-04-24 02:42:00,65.0,50.0,-100.00,SSE,152,11.0,24.0,58,0.00,,,0.00,0.000000,,2013-04-24 06:42:00,
2013-04-24 03:11:00,65.0,52.0,-100.00,South,184,10.0,21.0,62,0.00,,,0.00,0.000000,,2013-04-24 07:11:00,
2013-04-24 03:22:00,65.0,52.0,-100.00,South,184,10.0,21.0,62,0.00,,,0.00,0.000000,,2013-04-24 07:22:00,
2013-04-24 03:32:00,65.0,52.0,-100.00,South,184,10.0,21.0,62,0.00,,,0.00,0.000000,,2013-04-24 07:32:00,
2013-04-24 03:42:00,65.0,52.0,-100.00,South,184,10.0,21.0,62,0.00,,,0.00,0.000000,,2013-04-24 07:42:00,
2013-04-24 04:12:00,65.0,52.0,-100.00,South,184,8.0,21.0,63,0.00,,,0.00,0.000000,,2013-04-24 08:12:00,
2013-04-24 04:21:00,65.0,52.0,-100.00,South,184,8.0,21.0,63,0.00,,,0.00,0.000000,,2013-04-24 08:21:00,
2013-04-24 04:33:00,65.0,52.0,-100.00,South,184,8.0,21.0,63,0.00,,,0.00,0.000000,,2013-04-24 08:33:00,
2013-04-24 04:42:00,65.0,52.0,-100.00,South,184,8.0,21.0,63,0.00,,,0.00,0.000000,,2013-04-24 08:42:00,
2013-04-24 05:12:00,62.0,54.0,-100.00,SW,231,11.0,23.0,74,0.00,,,0.00,0.000000,,2013-04-24 09:12:00,
2013-04-24 05:21:00,62.0,54.0,-100.00,SW,231,11.0,23.0,74,0.00,,,0.00,0.000000,,2013-04-24 09:21:00,
2013-04-24 05:33:00,62.0,54.0,-100.00,SW,231,11.0,23.0,74,0.00,,,0.00,0.000000,,2013-04-24 09:33:00,
2013-04-24 05:42:00,62.0,54.0,-100.00,SW,231,11.0,23.0,74,0.00,,,0.00,0.000000,,2013-04-24 09:42:00,
2013-04-24 06:12:00,58.0,55.0,-100.00,SW,233,7.0,14.0,89,0.00,,,0.00,0.000000,,2013-04-24 10:12:00,
2013-04-24 06:23:00,58.0,55.0,-100.00,SW,233,7.0,14.0,89,0.00,,,0.00,0.000000,,2013-04-24 10:23:00,
2013-04-24 06:33:00,58.0,55.0,-100.00,SW,233,7.0,14.0,89,0.00,,,0.00,0.000000,,2013-04-24 10:33:00,
2013-04-24 06:42:00,58.0,55.0,-100.00,SW,233,7.0,14.0,89,0.00,,,0.00,0.000000,,2013-04-24 10:42:00,
2013-04-24 07:12:00,55.0,52.0,-100.00,WSW,255,11.0,36.0,91,0.00,,,0.00,0.000000,,2013-04-24 11:12:00,
2013-04-24 07:22:00,55.0,52.0,-100.00,WSW,255,11.0,36.0,91,0.00,,,0.00,0.000000,,2013-04-24 11:22:00,
2013-04-24 07:32:00,55.0,52.0,-100.00,WSW,255,11.0,36.0,91,0.00,,,0.00,0.000000,,2013-04-24 11:32:00,
2013-04-24 07:42:00,55.0,52.0,-100.00,WSW,255,11.0,36.0,91,0.00,,,0.00,0.000000,,2013-04-24 11:42:00,
2013-04-24 08:12:00,47.0,46.0,-100.00,NNW,342,2.0,21.0,95,0.15,,,0.15,1.000000,,2013-04-24 12:12:00,
2013-04-24 08:22:00,47.0,46.0,-100.00,NNW,342,2.0,21.0,95,0.15,,,0.15,1.000000,,2013-04-24 12:22:00,
2013-04-24 08:32:00,47.0,46.0,-100.00,NNW,342,2.0,21.0,95,0.15,,,0.15,1.000000,,2013-04-24 12:32:00,
2013-04-24 08:42:00,47.0,46.0,-100.00,NNW,342,2.0,21.0,95,0.15,,,0.15,1.000000,,2013-04-24 12:42:00,
2013-04-24 09:12:00,44.0,42.0,-100.00,NW,307,8.0,16.0,94,0.18,,,0.33,6.000000,,2013-04-24 13:12:00,
2013-04-24 09:22:00,44.0,42.0,-100.00,NW,307,8.0,16.0,94,0.18,,,0.33,6.000000,,2013-04-24 13:22:00,
2013-04-24 09:32:00,44.0,42.0,-100.00,NW,307,8.0,16.0,94,0.18,,,0.33,6.000000,,2013-04-24 13:32:00,
2013-04-24 09:41:00,44.0,42.0,-100.00,NW,307,8.0,16.0,94,0.18,,,0.33,6.000000,,2013-04-24 13:41:00,
2013-04-24 10:11:00,42.0,41.0,-100.00,WNW,288,8.0,15.0,95,0.38,,,0.71,16.000000,,2013-04-24 14:11:00,
2013-04-24 10:22:00,42.0,41.0,-100.00,WNW,288,8.0,15.0,95,0.38,,,0.71,16.000000,,2013-04-24 14:22:00,
2013-04-24 10:32:00,42.0,41.0,-100.00,WNW,288,8.0,15.0,95,0.38,,,0.71,16.000000,,2013-04-24 14:32:00,
2013-04-24 10:42:00,42.0,41.0,-100.00,WNW,288,8.0,15.0,95,0.38,,,0.71,16.000000,,2013-04-24 14:42:00,
2013-04-24 11:11:00,42.0,40.0,-100.00,NW,317,6.0,13.0,94,0.13,,,0.84,40.000000,,2013-04-24 15:11:00,
2013-04-24 11:22:00,42.0,40.0,-100.00,NW,317,6.0,13.0,94,0.13,,,0.84,40.000000,,2013-04-24 15:22:00,
2013-04-24 11:33:00,42.0,40.0,-100.00,NW,317,6.0,13.0,94,0.13,,,0.84,40.000000,,2013-04-24 15:33:00,
2013-04-24 11:43:00,42.0,40.0,-100.00,NW,317,6.0,13.0,94,0.13,,,0.84,40.000000,,2013-04-24 15:43:00,
2013-04-24 12:12:00,41.0,39.0,-100.00,WNW,298,10.0,20.0,91,0.02,,,0.86,49.000000,,2013-04-24 16:12:00,
2013-04-24 12:23:00,41.0,39.0,-100.00,WNW,298,10.0,20.0,91,0.02,,,0.86,49.000000,,2013-04-24 16:23:00,
2013-04-24 12:32:00,41.0,39.0,-100.00,WNW,298,10.0,20.0,91,0.02,,,0.86,49.000000,,2013-04-24 16:32:00,
2013-04-24 12:42:00,41.0,39.0,-100.00,WNW,298,10.0,20.0,91,0.02,,,0.86,49.000000,,2013-04-24 16:42:00,
2013-04-24 13:12:00,40.0,38.0,-100.00,WNW,294,11.0,20.0,92,0.00,,,0.86,60.000000,,2013-04-24 17:12:00,
2013-04-24 13:22:00,40.0,38.0,-100.00,WNW,294,11.0,20.0,92,0.00,,,0.86,60.000000,,2013-04-24 17:22:00,
2013-04-24 13:32:00,40.0,38.0,-100.00,WNW,294,11.0,20.0,92,0.00,,,0.86,60.000000,,2013-04-24 17:32:00,
2013-04-24 13:42:00,40.0,38.0,-100.00,WNW,294,11.0,20.0,92,0.00,,,0.86,60.000000,,2013-04-24 17:42:00,
2013-04-24 14:12:00,40.0,37.0,-100.00,WNW,283,10.0,20.0,90,0.01,,,0.87,232.000000,,2013-04-24 18:12:00,
2013-04-24 14:22:00,40.0,37.0,-100.00,WNW,283,10.0,20.0,90,0.01,,,0.87,232.000000,,2013-04-24 18:22:00,
2013-04-24 14:33:00,40.0,37.0,-100.00,WNW,283,10.0,20.0,90,0.01,,,0.87,232.000000,,2013-04-24 18:33:00,
2013-04-24 14:42:00,40.0,37.0,-100.00,WNW,283,10.0,20.0,90,0.01,,,0.87,232.000000,,2013-04-24 18:42:00,
2013-04-24 15:12:00,43.0,35.0,-100.00,NW,308,14.0,24.0,74,0.00,,,0.87,401.000000,,2013-04-24 19:12:00,
2013-04-24 15:22:00,43.0,35.0,-100.00,NW,308,14.0,24.0,74,0.00,,,0.87,401.000000,,2013-04-24 19:22:00,
2013-04-24 15:32:00,43.0,35.0,-100.00,NW,308,14.0,24.0,74,0.00,,,0.87,401.000000,,2013-04-24 19:32:00,
2013-04-24 15:42:00,43.0,35.0,-100.00,NW,308,14.0,24.0,74,0.00,,,0.87,401.000000,,2013-04-24 19:42:00,
2013-04-24 16:11:00,44.0,34.0,-100.00,WNW,290,12.0,25.0,68,0.00,,,0.87,357.000000,,2013-04-24 20:11:00,
2013-04-24 16:22:00,44.0,34.0,-100.00,WNW,290,12.0,25.0,68,0.00,,,0.87,357.000000,,2013-04-24 20:22:00,
2013-04-24 16:32:00,44.0,34.0,-100.00,WNW,290,12.0,25.0,68,0.00,,,0.87,357.000000,,2013-04-24 20:32:00,
2013-04-24 16:42:00,44.0,34.0,-100.00,WNW,290,12.0,25.0,68,0.00,,,0.87,357.000000,,2013-04-24 20:42:00,
2013-04-24 17:12:00,45.0,34.0,-100.00,WNW,291,8.0,17.0,65,0.00,,,0.87,222.000000,,2013-04-24 21:12:00,
2013-04-24 17:22:00,45.0,34.0,-100.00,WNW,291,8.0,17.0,65,0.00,,,0.87,222.000000,,2013-04-24 21:22:00,
2013-04-24 17:33:00,45.0,34.0,-100.00,WNW,291,8.0,17.0,65,0.00,,,0.87,222.000000,,2013-04-24 21:33:00,
2013-04-24 17:42:00,45.0,34.0,-100.00,WNW,291,8.0,17.0,65,0.00,,,0.87,222.000000,,2013-04-24 21:42:00,
2013-04-24 18:12:00,47.0,36.0,-100.00,West,280,9.0,19.0,65,0.00,,,0.87,234.000000,,2013-04-24 22:12:00,
2013-04-24 18:22:00,47.0,36.0,-100.00,West,280,9.0,19.0,65,0.00,,,0.87,234.000000,,2013-04-24 22:22:00,
2013-04-24 18:33:00,47.0,36.0,-100.00,West,280,9.0,19.0,65,0.00,,,0.87,234.000000,,2013-04-24 22:33:00,
2013-04-24 18:42:00,47.0,36.0,-100.00,West,280,9.0,19.0,65,0.00,,,0.87,234.000000,,2013-04-24 22:42:00,
2013-04-24 19:12:00,45.0,36.0,-100.00,WSW,253,8.0,16.0,70,0.00,,,0.87,288.000000,,2013-04-24 23:12:00,
2013-04-24 19:22:00,45.0,36.0,-100.00,WSW,253,8.0,16.0,70,0.00,,,0.87,288.000000,,2013-04-24 23:22:00,
2013-04-24 19:32:00,45.0,36.0,-100.00,WSW,253,8.0,16.0,70,0.00,,,0.87,288.000000,,2013-04-24 23:32:00,
2013-04-24 19:42:00,45.0,36.0,-100.00,WSW,253,8.0,16.0,70,0.00,,,0.87,288.000000,,2013-04-24 23:42:00,
2013-04-24 20:12:00,45.0,35.0,-100.00,West,265,12.0,22.0,67,0.00,,,0.87,148.000000,,2013-04-25 00:12:00,
2013-04-24 20:23:00,45.0,35.0,-100.00,West,265,12.0,22.0,67,0.00,,,0.87,148.000000,,2013-04-25 00:23:00,
2013-04-24 20:32:00,45.0,35.0,-100.00,West,265,12.0,22.0,67,0.00,,,0.87,148.000000,,2013-04-25 00:32:00,
2013-04-24 20:42:00,45.0,35.0,-100.00,West,265,12.0,22.0,67,0.00,,,0.87,148.000000,,2013-04-25 00:42:00,
2013-04-24 21:12:00,42.0,34.0,-100.00,WNW,284,4.0,18.0,73,0.00,,,0.87,22.000000,,2013-04-25 01:12:00,
2013-04-24 21:23:00,42.0,34.0,-100.00,WNW,284,4.0,18.0,73,0.00,,,0.87,22.000000,,2013-04-25 01:23:00,
2013-04-24 21:32:00,42.0,34.0,-100.00,WNW,284,4.0,18.0,73,0.00,,,0.87,22.000000,,2013-04-25 01:32:00,
2013-04-24 21:42:00,42.0,34.0,-100.00,WNW,284,4.0,18.0,73,0.00,,,0.87,22.000000,,2013-04-25 01:42:00,
2013-04-24 22:11:00,38.0,35.0,-100.00,SW,221,0.0,8.0,88,0.00,,,0.87,0.000000,,2013-04-25 02:11:00,
2013-04-24 22:22:00,38.0,35.0,-100.00,SW,221,0.0,8.0,88,0.00,,,0.87,0.000000,,2013-04-25 02:22:00,
2013-04-24 22:32:00,38.0,35.0,-100.00,SW,221,0.0,8.0,88,0.00,,,0.87,0.000000,,2013-04-25 02:32:00,
2013-04-24 22:42:00,38.0,35.0,-100.00,SW,221,0.0,8.0,88,0.00,,,0.87,0.000000,,2013-04-25 02:42:00,
2013-04-24 23:11:00,35.0,33.0,-100.00,SW,232,0.0,6.0,94,0.00,,,0.87,0.000000,,2013-04-25 03:11:00,
2013-04-24 23:22:00,35.0,33.0,-100.00,SW,232,0.0,6.0,94,0.00,,,0.87,0.000000,,2013-04-25 03:22:00,
2013-04-24 23:33:00,35.0,33.0,-100.00,SW,232,0.0,6.0,94,0.00,,,0.87,0.000000,,2013-04-25 03:33:00,
2013-04-24 23:43:00,35.0,33.0,-100.00,SW,232,0.0,6.0,94,0.00,,,0.87,0.000000,,2013-04-25 03:43:00,